Location: Claremont
(33.9858°S, 18.4575°E)
Time: 03:31:00
(UTC+00:00)

YAOGAN 1 - Pass Details

Date: 03 March 2021
Orbit: 618 x 620 km, 97.9° (Epoch: 21 April)

Event Time Altitude Azimuth Distance (km) Brightness Sun altitude
Rises 18:51:42 0° 179° (S) 2,929 6.3 -19.2°
Reaches altitude 10° 18:54:02 10° 187° (S) 2,014 5.5 -19.6°
Maximum altitude 18:58:02 36° 252° (WSW) 1,002 4.2 -20.4°
Drops below altitude 10° 19:02:00 10° 319° (NW) 1,990 5.4 -21.2°
Sets 19:04:18 0° 327° (NNW) 2,888 6.1 -21.6°
